Regional Weather Roundup
Issued by NWS

Home | Current Version | Previous Version | Text Only | Print | Product List | Glossary On
Versions: 1 2 3 4 5 6 7 8 9 10 11 12 13 14 15 16 17 18 19 20 21 22 23 24 25 26 27 28 29 30 31 32 33 34 35 36 37 38 39 40 41 42 43 44 45 46 47 48 49 50
614
ASUS44 KLIX 191212
RWRLA
LOUISIANA WEATHER ROUNDUP
NATIONAL WEATHER SERVICE NEW ORLEANS LA
600 AM CST MON FEB 19 2018

NOTE: "FAIR" INDICATES FEW OR NO CLOUDS BELOW 12,000 FEET WITH NO
      SIGNIFICANT WEATHER AND/OR OBSTRUCTIONS TO VISIBILITY.
      SKY/WX - SKY CONDITION AND SIGNIFICANT WEATHER.
      TMP - AIR TEMPERATURE.    DP   - DEWPOINT TEMPERATURE.
      RH  - RELATIVE HUMIDITY.  PRES - PRESSURE.
      HX  - HEAT INDEX.         WCI  - WIND CHILL INDEX.

*  THESE STATIONS ARE NOT NWS OR FAA STATIONS AND ARE NOT UNDER
   NWS QUALITY CONTROL.

LAZ040-048-061>063-065-066-069-191300-
SOUTHEAST LOUISIANA

CITY           SKY/WX    TMP DP  RH WIND       PRES   REMARKS
N.O. INTL ARPT FAIR      65  65 100 SE5       30.13R
6HR MIN TEMP:  64; 6HR MAX TEMP:  68;

N.O. LAKEFRONT FAIR      66  65  96 SE7       30.14R FOG
6HR MIN TEMP:  65; 6HR MAX TEMP:  69;

N.O. DOWNTOWN* FAIR      69  66  90 S6        30.14S
6HR MIN TEMP:  67; 6HR MAX TEMP:  69;

RESERVE*       FOG       67  65  93 SE5       30.12S VSB<1/4
6HR MIN TEMP:  65; 6HR MAX TEMP:  69;

SLIDELL        CLOUDY    60  58  92 CALM      30.14R
6HR MIN TEMP:  59; 6HR MAX TEMP:  69;

BATON ROUGE    FOG       63  63 100 E7        30.10S VSB 1/4
6HR MIN TEMP:  62; 6HR MAX TEMP:  67;

BOOTHVILLE     NOT AVBL
BELLE CHASSE   FOG       61  61 100 SE3       30.13S VSB 1/2
6HR MIN TEMP:  60; 6HR MAX TEMP:  67;

BOGALUSA*      FOG       65  63  91 CALM      30.15S VSB 1/4
6HR MIN TEMP:  65; 6HR MAX TEMP:  69;

GALLIANO*      FOG       60  57  92 CALM      30.13R VSB 1/4
6HR MIN TEMP:  59; 6HR MAX TEMP:  70;

NEW ROADS*     CLOUDY    64  62  94 SE7       30.10S FOG
6HR MIN TEMP:  62; 6HR MAX TEMP:  64;

GONZALES*      NOT AVBL
HAMMOND*       FOG       64  64 100 SE5       30.13S VSB 1/4
HOUMA*         NOT AVBL
PORT FOURCHON* SUNNY     72  66  83 SE3       30.13R

$$

LAZ041-044-053-054-191300-
SOUTHWEST LOUISIANA

CITY           SKY/WX    TMP DP  RH WIND       PRES   REMARKS
LAKE CHARLES   FAIR      65  65 100 S8        30.05R
6HR MIN TEMP:  65; 6HR MAX TEMP:  71;

LAFAYETTE      FAIR      67  66  97 VRB3      30.08S
6HR MIN TEMP:  67; 6HR MAX TEMP:  68;

PATTERSON      FAIR      65  65 100 E5        30.10S
6HR MIN TEMP:  65; 6HR MAX TEMP:  68;

SALT POINT       N/A     66  64  93 SE7       30.08S
6HR MIN TEMP:  65; 6HR MAX TEMP:  67;

NEW IBERIA     FAIR      66  63  90 SE8       30.09R
6HR MIN TEMP:  64; 6HR MAX TEMP:  68;

CHENAULT AIRPK CLEAR     63  61  94 E7        30.06R

$$

LAZ027-028-191300-
CENTRAL LOUISIANA

CITY           SKY/WX    TMP DP  RH WIND       PRES   REMARKS
FORT POLK      CLOUDY    67  64  91 S10       30.04S
6HR MIN TEMP:  66; 6HR MAX TEMP:  67;

ALEXANDRIA INT CLOUDY    67  65  93 SE10      30.05S
6HR MIN TEMP:  63; 6HR MAX TEMP:  67;

ALEXANDRIA     CLOUDY    64  64 100 SE5       30.07S FOG
6HR MIN TEMP:  63; 6HR MAX TEMP:  65;


$$

LAZ001-002-191300-
NORTHWEST LOUISIANA

CITY           SKY/WX    TMP DP  RH WIND       PRES   REMARKS
SHREVEPORT     CLOUDY    64  62  93 S12       30.01R
6HR MIN TEMP:  63; 6HR MAX TEMP:  67;

BARKSDALE AFB  FAIR      61  61 100 S8        30.01S
6HR MIN TEMP:  60; 6HR MAX TEMP:  64;

DTN SHREVEPORT   N/A    N/A N/A N/A MISG        N/A

$$

LAZ014-016-191300-
NORTHEAST LOUISIANA

CITY           SKY/WX    TMP DP  RH WIND       PRES   REMARKS
MONROE         FAIR      62  62 100 S7        30.08S
6HR MIN TEMP:  61; 6HR MAX TEMP:  63;

TALLULAH       FOG       58  58 100 SE5       30.11S VSB 3/4
6HR MIN TEMP:  57; 6HR MAX TEMP:  63;


$$





USA.gov is the U.S. government's official web portal to all federal, state and local government web resources and services.